EW5944 Weather Reports


Display with metric or nautical units.
time (UTC)temp
F
wind
direction
speed
MPH
gust
MPH
rain 1hr
in
rain 24hr
in
rain mn
in
humidity
%
barometer
mb
20260504023158 50 280 0.0 0.0 0.00 0.00 0.00 1017.9
20260504022156 50 280 0.0 0.0 0.00 0.00 0.00 1017.6
20260504021156 51 280 0.0 0.0 0.00 0.00 0.00 1017.6
20260504020155 51 280 0.0 0.0 0.00 0.00 0.00 1017.6
20260504015154 52 280 0.0 0.0 0.00 0.00 0.00 1017.6
20260504014152 52 280 0.0 0.0 0.00 0.00 0.00 1017.3
20260504013152 53 280 0.0 0.0 0.00 0.00 0.00 1017.3
20260504012151 53 280 0.0 0.0 0.00 0.00 0.00 1016.9
20260504011150 54 280 0.0 0.0 0.00 0.00 0.00 1017.3
20260504010149 54 280 0.0 0.0 0.00 0.00 0.00 1017.3
20260504005117 55 280 0.0 0.0 0.00 0.00 0.00 1017.3
20260504004116 55 280 0.0 0.0 0.00 0.00 0.00 1016.9
20260504003115 56 280 0.0 0.0 0.00 0.00 0.00 1016.9
20260504002043 57 280 0.0 0.0 0.00 0.00 0.00 1016.6
20260504001042 57 280 0.0 0.0 0.00 0.00 0.00 1016.9
20260504000041 58 280 0.0 0.0 0.00 0.00 0.00 1016.9
20260503235040 58 280 0.0 0.0 0.00 0.00 0.00 1016.9
20260503234039 58 282 0.0 0.0 0.00 0.00 0.00 1016.6
20260503233038 59 282 0.0 0.0 0.00 0.00 0.00 1016.6
20260503232037 59 282 0.0 0.0 0.00 0.00 0.00 1016.6
20260503231036 59 282 0.0 0.0 0.00 0.00 0.00 1016.6
20260503230035 60 282 0.0 0.0 0.00 0.00 0.00 1016.6
20260503225034 61 282 0.0 0.0 0.00 0.00 0.00 1016.6
20260503224034 61 282 0.0 0.0 0.00 0.00 0.00 1016.3
20260503223033 62 282 0.0 0.0 0.00 0.00 0.00 1016.3
20260503222001 62 282 0.0 0.0 0.00 0.00 0.00 1016.3
20260503220959 62 270 0.0 0.0 0.00 0.00 0.00 1016.3
20260503215959 63 270 0.0 0.0 0.00 0.00 0.00 1016.3
20260503214958 63 196 0.0 0.0 0.00 0.00 0.00 1015.9
20260503213956 64 143 0.0 0.0 0.00 0.00 0.00 1016.3
20260503212956 64 284 0.0 0.0 0.00 0.00 0.00 1016.3
20260503211955 65 284 0.0 3.0 0.00 0.00 0.00 1016.3
20260503210954 65 294 0.0 0.0 0.00 0.00 0.00 1016.3
20260503205953 65 295 0.0 0.0 0.00 0.00 0.00 1016.3
20260503204952 65 295 0.0 0.0 0.00 0.00 0.00 1016.3
20260503203920 65 223 0.0 3.0 0.00 0.00 0.00 1016.6
20260503202919 65 185 0.0 0.0 0.00 0.00 0.00 1016.6
20260503201918 65 185 0.0 3.0 0.00 0.00 0.00 1016.6
20260503200917 65 185 0.0 0.0 0.00 0.00 0.00 1016.9
20260503195916 64 261 0.0 1.0 0.00 0.00 0.00 1016.9
20260503194845 64 285 0.0 2.0 0.00 0.00 0.00 1017.3
20260503193812 63 172 0.0 0.0 0.00 0.00 0.00 1017.3
20260503192811 63 172 0.0 0.0 0.00 0.00 0.00 1017.6
20260503191810 62 172 0.0 1.0 0.00 0.00 0.00 1017.6
20260503190809 62 180 2.0 3.0 0.00 0.00 0.00 1017.9
20260503185808 62 150 0.0 0.0 0.00 0.00 0.00 1017.9
20260503184807 61 116 0.0 0.0 0.00 0.00 0.00 1017.9
20260503183806 60 145 0.0 1.0 0.00 0.00 0.00 1018.3
20260503182806 60 162 0.0 3.0 0.00 0.00 0.00 1018.3
20260503181805 60 160 1.0 3.0 0.00 0.00 0.00 1018.3
20260503180804 59 264 0.0 3.0 0.00 0.00 0.00 1018.3
20260503175803 59 219 0.0 2.0 0.00 0.00 0.00 1018.6
20260503174731 58 224 0.0 0.0 0.00 0.00 0.00 1018.6
20260503173730 57 191 0.0 1.0 0.00 0.00 0.00 1019.0
20260503172729 56 150 0.0 0.0 0.00 0.00 0.00 1019.3
20260503171728 56 123 0.0 2.0 0.00 0.00 0.00 1019.3
20260503170656 56 291 0.0 2.0 0.00 0.00 0.00 1019.6
20260503150614 51 141 0.0 0.0 0.00 0.00 0.00 1020.7
20260503130502 43 274 0.0 0.0 0.00 0.00 0.00 1021.0
20260503080654 39 274 0.0 0.0 0.00 0.00 0.00 1017.6
20260503072619 41 274 0.0 0.0 0.00 0.00 0.00 1017.3
20260503071618 41 274 0.0 0.0 0.00 0.00 0.00 1017.3
20260503070618 41 274 0.0 0.0 0.00 0.00 0.00 1017.3
20260503054539 44 274 0.0 0.0 0.00 0.00 0.00 1016.9
20260503053538 44 274 0.0 0.0 0.00 0.00 0.00 1016.9
20260503052537 44 274 0.0 0.0 0.00 0.00 0.00 1016.9
20260503051536 44 274 0.0 0.0 0.00 0.00 0.00 1016.9
20260503050504 43 274 0.0 0.0 0.00 0.00 0.00 1017.6
20260503045401 43 274 0.0 0.0 0.00 0.00 0.00 1017.6
20260503044400 43 274 0.0 0.0 0.00 0.00 0.00 1017.3
20260503043359 43 274 0.0 0.0 0.00 0.00 0.00 1017.3
20260503042358 43 274 0.0 0.0 0.00 0.00 0.00 1017.3
20260503041357 43 274 0.0 0.0 0.00 0.00 0.00 1016.9
20260503040356 43 274 0.0 0.0 0.00 0.00 0.00 1016.9
20260503035355 43 274 0.0 0.0 0.00 0.00 0.00 1016.6
20260503034354 44 274 0.0 0.0 0.00 0.00 0.00 1016.6
20260503033353 44 274 0.0 0.0 0.00 0.00 0.00 1016.6
20260503032352 45 274 0.0 0.0 0.00 0.00 0.00 1016.6
20260503031351 45 274 0.0 0.0 0.00 0.00 0.00 1016.6
20260503030350 46 274 0.0 0.0 0.00 0.00 0.00 1016.6
20260503025349 46 274 0.0 0.0 0.00 0.00 0.00 1016.6
20260503024348 46 274 0.0 0.0 0.00 0.00 0.00 1016.3